Location: Devore Heights
(34.2372°N, 117.4156°W)
Time: 03:47:31
(UTC+00:00)

S-56A Canister/Altair - Pass Details

Date: 22 September 2024
Orbit: 636 x 2487 km, 38.9° (Epoch: 05 October)

Event Time Altitude Azimuth Distance (km) Brightness Sun altitude
Rises 06:04:23 0° 287° (WNW) 3,776 11.6 -48.7°
Reaches altitude 10° 06:06:46 10° 282° (WNW) 3,022 10.9 -49.0°
Enters shadow 06:07:31 14° 279° (W) 2,803 10.7 -49.1°
Maximum altitude 06:13:59 47° 210° (SSW) 1,885 - -49.9°
Drops below altitude 10° 06:24:40 10° 142° (SE) 4,415 - -51.1°
Sets 06:28:56 0° 137° (SE) 5,664 - -51.6°
